Tracking 21076 objects as of 8-Aug-2020
HD Live streaming from Space Station
objects crossing your sky now

SL-6 R/B(2)

Track SL-6 R/B(2) now!


NORAD ID: 16533
Int'l Code: 1986-011F
Perigee: 7,643.7 km
Apogee: 32,127.9 km
Inclination: 70.8 °
Period: 705.7 minutes
Semi major axis: 26256 km
RCS: 5.6516 m2 (large)
Launch date: February 1, 1986
Source: Commonwealth of Independent States (former USSR) (CIS)
Launch site: PLESETSK MISSILE AND SPACE COMPLEX (PKMTR)

Note: This is a ROCKET BODY
aabbcc
Your satellite tracking list
Your tracking list is empty




NASA's NSSDC Master Catalog

Two Line Element Set (TLE):
1 16533U 86011F   20216.88556302  .00000119  00000-0  00000+0 0  9992
2 16533  70.8058 212.6411 4662462  65.3114  62.7880  2.04051598240398
Source of the keplerian elements: AFSPC